STARLINK-30196 (57448 NORAD) Tracking and Keplerian Element Data

This shows tracking and keplerian element data for the satellite.

Feedback or suggestion? Click here.




ElementValue
Catalog57448
NameSTARLINK-30196
Epoch Orbit2705
Epoch Day12.92470073
Epoch Year2024
RAAN216.4534
Inclination43.0009
Eccentricity0.0001466
Argument of Perigee263.3899
Mean Anonmoly96.6776
Mean Motion15.02534881
Decay Rate4.551E-05
L11 57448U 23105U 24012.92470073 .00004551 00000+0 35175-3 0 9998
L22 57448 43.0009 216.4534 0001466 263.3899 96.6776 15.02534881 27050



Live tracking and technical data element details for STARLINK-30196 (NORAD 57448). STARLINK-30196 can be tracked NOW for your location showing map with azimuth and elevation plus other details from your city location.







IsCatalogInMostPopularTable: catalog: 57448, numindb: 5
Update: records affected: 1



GetName: 57448 STARLINK-30196

Hit Count: updated at: Thu, 22 Feb 2024 00:20:32 GMT